sat.trackr.live / text

‹ back to catalog

STARLINK-4758

NORAD 53820 · 2022-114C

PAYLOAD ACTIVE UNKNOWN

§ Identity

Operator
Country
US
Launch date
2022-09-19
Launch site
AFETR
Launch vehicle
Mass (kg)
RCS (m²)

Purposes: comms

External: N2YO · Heavens-Above · Gunter

§ Orbital elements

Epoch: 2026-05-24T21:37:59.783232Z

Period
95.44 min
Inclination
53.2137°
Eccentricity
0.0001185
Mean motion
15.08831905 rev/d
Perigee alt
538.9 km
Apogee alt
540.6 km
Semi-major
6,917.9 km
B*
1.0591e-6
RAAN
322.2103°
Arg perigee
79.6552°
Mean anomaly
280.4574°
Rev number
20,433

§ Raw data

STARLINK-47581 53820U 22114C   26144.90138638 -.00000271  00000+0  10591-5 0  99942 53820  53.2137 322.2103 0001185  79.6552 280.4574 15.08831905204335

JSON: /api/v1/satellites/53820 · /tle

For live sub-satellite position, see the globe view (requires WebGL).

§ Visibility from observer

Set your observer location to see the next 7 days of passes ≥ 10°. The values pass through the URL so the page stays shareable.

No JS? Fill the form by hand. The geolocation button needs JavaScript.